Elmas current weather conditions

sailwx.info

Wind from 130 at 4 knots

Air temperature 31.0° C
Dewpoint 18.0° C

Last reported at 2015-Jul-04 17:20 UTC.
Time now 2015-Jul-04 19:00 UTC

Location: N 39°15' E 009°03'.
View on Google Maps.

See reports from other nearby stations

  
Tides and Currents Weather Stations Pressure Air Temp Water Temp Dewpoint Dewpoint Depression Visibility Wind Speed Wind Dir Waves Ship Positions
date/time (UTC)wind fromknots sea level pressurealtimeterstation pressurevisibilityair tempwater tempwave heightnotes
2015-Jul-04 17:20 130 4 31.0
2015-Jul-04 16:50 100 7 31.0
2015-Jul-04 16:20 140 7 21.0
2015-Jul-04 15:50 120 9 30.0
2015-Jul-04 15:20 130 10 31.0
2015-Jul-04 14:50 130 8 5.431.0
2015-Jul-04 14:20 150 10 5.432.0
2015-Jul-04 13:50 150 12 32.0
2015-Jul-04 13:20 150 10 33.0
2015-Jul-04 12:50 160 11 33.0
2015-Jul-04 12:20 170 10 32.0
2015-Jul-04 11:50 150 10 31.0
2015-Jul-04 11:20 150 9 31.0
2015-Jul-04 10:50 150 8 31.0
2015-Jul-04 10:20 160 8 31.0
2015-Jul-04 09:50 150 7 31.0
2015-Jul-04 09:20 120 6 31.0
2015-Jul-04 08:50 170 4 31.0
2015-Jul-04 08:20 170 4 30.0
2015-Jul-04 07:50 29.0
2015-Jul-04 07:20 130 3 28.0
2015-Jul-04 06:50 27.0
2015-Jul-04 06:20 25.0
2015-Jul-04 05:50 24.0
2015-Jul-04 05:20 350 3 22.0
2015-Jul-04 04:50 310 3 21.0
2015-Jul-04 04:20 320 5 21.0
2015-Jul-04 03:50 330 2 22.0
2015-Jul-04 02:50 320 3 21.0
2015-Jul-04 02:20 040 2 22.0
2015-Jul-04 01:50 330 3 22.0
2015-Jul-04 01:20 320 3 22.0
2015-Jul-04 00:20 320 3 23.0
2015-Jul-03 23:50 320 3 23.0
2015-Jul-03 23:20 330 3 24.0
2015-Jul-03 22:50 340 1 25.0
2015-Jul-03 22:20 25.0
2015-Jul-03 21:50 25.0
2015-Jul-03 20:50 180 5 26.0
2015-Jul-03 20:20 170 4 26.0
2015-Jul-03 19:50 170 4 26.0
2015-Jul-03 19:20 150 4 26.0
2015-Jul-03 18:50 140 5 27.0
2015-Jul-03 17:50 160 8 28.0
2015-Jul-03 17:20 150 8 28.0
2015-Jul-03 16:50 130 11 28.0
2015-Jul-03 16:20 130 12 29.0
2015-Jul-03 15:50 130 12 29.0
2015-Jul-03 15:20 140 11 30.0
2015-Jul-03 14:50 150 11 30.0
2015-Jul-03 14:20 160 11 30.0
2015-Jul-03 13:50 140 12 30.0
2015-Jul-03 13:20 150 10 31.0
2015-Jul-03 12:50 150 9 31.0
2015-Jul-03 12:20 160 9 30.0
2015-Jul-03 11:50 160 8 30.0
2015-Jul-03 11:20 160 9 31.0
2015-Jul-03 10:50 170 8 30.0
2015-Jul-03 10:20 170 10 30.0
2015-Jul-03 09:50 170 8 30.0
2015-Jul-03 09:20 170 7 28.0
2015-Jul-03 08:50 160 7 28.0
2015-Jul-03 08:20 160 7 28.0
2015-Jul-03 07:50 160 7 27.0
2015-Jul-03 07:20 160 6 27.0
2015-Jul-03 06:50 160 5 26.0
2015-Jul-03 06:20 150 3 26.0
2015-Jul-03 05:50 090 3 25.0
2015-Jul-03 04:50 21.0
2015-Jul-03 04:20 20.0
2015-Jul-03 03:50 020 1 20.0
2015-Jul-03 03:20 20.0
2015-Jul-03 02:50 330 4 20.0
2015-Jul-03 02:20 330 3 21.0
2015-Jul-03 01:50 340 3 21.0
2015-Jul-03 01:20 320 5 21.0
2015-Jul-03 00:50 300 5 22.0
2015-Jul-03 00:20 310 3 22.0
2015-Jul-02 23:50 030 3 22.0
2015-Jul-02 23:20 330 3 24.0
2015-Jul-02 22:50 24.0
2015-Jul-02 22:20 160 3 25.0
2015-Jul-02 21:50 140 4 25.0
2015-Jul-02 21:20 070 3 25.0
2015-Jul-02 20:50 080 3 26.0
2015-Jul-02 20:20 26.0
2015-Jul-02 19:50 170 7 26.0
2015-Jul-02 19:20 180 7 26.0